Showing default

FLOCK 4G 30, 62679

Orbit data source: Space-Track

FLOCK 4G 30, 62679 is a payload satellite owned by Planet (US) in SSO that was launched on Tue, 14 Jan 2025 UTC via an FALCON 9 launch vehicle from the Air Force Western Test Range (AFWTR). Payload-class satellites include a variety of spacecraft equipped with specific instruments for various scientific and technological missions. These include communications satellites like Starlink; space stations such as the ISS; scientific satellites like the Hubble; Earth observation satellites from companies like Planet Labs, Umbra, and HawkEye 360; GPS; miniature CubeSats for education and research; and military/defense satellites.

Loading next visibility...
Identifier
62679, 2025-009BY
Orbit
SSO
Country
Flag of USUS
Related business
Manufacturer
Planet
Mission
Operational Commercial Imaging
Bus & Motor
CUBESAT 3U, Unknown motor
Mass
5.7 kg wet, 5.7 kg dry
Launch date (UTC)
2025-01-14 (1 year ago)
Launch vehicle
FALCON 9
Launch site
Air Force Western Test Range (AFWTR)
Object type
Payload
Rocket body
Debris
Shape & HBR
Box + 2 Pan, 1.0 m
Radar Cross Section
0.072 m², Medium (>0.1 m² and < 1m²)

Expand to show TLE details & history
Last TLE update: 18 hours ago

TLE from 18 hours ago
0 FLOCK 4G 30
1 62679U 25009BY  26037.18473297  .00015709  00000-0  60554-3 0  9990
2 62679  97.4024 119.3536 0005999  85.4155 274.7769 15.26394746116531
Epoch: 2026-02-06T04:26Z
TLE epoch observation values (Epoch: 2026-02-06T04:26:00.928Z)
Latitude
-0°
Longitude
-83.47651°
Altitude
489.359 km
Speed
7.621 km/s
True Right ascension
07h 57m 24s
True Declination
0° 00' 00"
Sunlit
Object was in full shadow at epoch
Visualization orbit readout
Latitude
Unknown
Longitude
Unknown
Altitude
Unknown
Speed
Unknown
Apparent Right ascension
Unknown
Apparent Declination
Unknown
Sunlit
N/A
Visualization observer readout
Local Sidereal Time
00:28:43
Azimuth
Unknown
Elevation
Unknown
Doppler factor
Unknown
Orbital elements
Apogee altitude
487.674 km
Perigee altitude
479.441 km
Semi-major axis
6,861.695 km
Eccentricity
0.0006
Inclination
97.4024°
RAAN
119.3536°
Arg. of periapsis
85.4155°
True anomaly
274.70839°
Mean anomaly
274.7769°
Eccentric anomaly
274.74265°
Mean motion
3.81853 °/min
Orbital period
94.28 mins
BSTAR
0.00060554
Loading maneuver chart data...
Computing Atmospheric mass density...
Loading historical data...
Loading historical data...
Loading historical data...
Loading historical data...
Loading historical data...
Loading historical data...
Loading historical data...

Documentation

Showing up to 5 results
|